DateTimeUTC,F1_A11,F1_S11,BsB_S11,BsG_S11,BsR_S11,BbsB_S11,BbsG_S11,BbsR_S11,BaB_A11,BaG_A11,BaR_A11,Tu_S11,T_S11,Uu_S11,U_S11,P_S11,T1_A11
2021-04-16T03:00:00Z,00000200,21000000,,,,,,,-000.27,-000.43,-000.16,17.7,25.0,,00.0,0646.8,31.0
2021-04-16T03:01:00Z,00000200,21000000,,,,,,,0000.33,0000.02,-000.09,17.7,25.0,,00.0,0646.8,31.0
2021-04-16T03:02:00Z,00000200,21000000,,,,,,,-000.37,-000.02,0000.29,17.7,25.0,,00.0,0646.8,31.0
2021-04-16T03:03:00Z,00000200,61000000,,,,,,,0000.44,0000.08,0000.22,17.7,25.0,,00.0,0646.8,31.0
2021-04-16T03:04:00Z,00000200,41000000,0000.30,0000.37,-000.08,0000.10,-000.05,0000.02,0000.26,0000.49,0000.15,17.7,24.8,,00.0,0647.6,31.0
2021-04-16T03:05:00Z,00000200,01000000,0000.40,0000.44,0000.29,-000.02,0000.02,0000.12,-000.07,0000.30,0000.24,17.7,24.7,,00.0,0647.7,31.0
2021-04-16T03:06:00Z,00000200,01000000,0000.74,0000.31,0000.38,0000.40,0000.27,-000.04,0000.25,0000.43,0000.17,17.7,24.7,,00.0,0647.6,31.0
2021-04-16T03:07:00Z,00000200,01000000,0000.05,0000.40,-000.00,-000.34,0000.10,-000.17,0000.30,-000.14,-000.10,17.8,24.7,00.0,00.0,0647.7,31.0
2021-04-16T03:08:00Z,00000200,01000000,0000.51,0000.45,0000.29,0000.07,0000.34,0000.12,0000.11,0000.29,-000.19,17.9,24.8,,00.0,0647.7,31.1
2021-04-16T03:09:00Z,00000200,01000000,0000.43,0000.53,0000.25,-000.06,0000.12,0000.30,0000.28,0000.17,0000.73,18.0,24.8,,00.0,0647.6,31.1
2021-04-16T03:10:00Z,00000200,01000000,0000.52,0000.27,0000.12,-000.32,0000.16,-000.12,0000.04,-000.16,-000.27,18.0,24.8,00.0,00.0,0647.6,31.1
2021-04-16T03:11:00Z,00000200,01000000,0000.89,0000.41,0000.37,0000.12,0000.07,-000.08,0000.02,0000.38,0000.03,18.0,24.8,,00.0,0647.6,31.1
2021-04-16T03:12:00Z,00000200,01000000,0000.52,0000.25,0000.38,0000.23,-000.01,-000.07,0000.33,0000.13,0000.25,18.0,24.8,00.0,00.0,0647.6,31.1
2021-04-16T03:13:00Z,00000200,01000000,0000.55,0000.34,0000.11,0000.18,0000.13,-000.07,-000.54,-000.33,0000.03,18.0,24.8,00.0,00.0,0647.5,31.0
2021-04-16T03:14:00Z,00000200,01000000,0000.55,0000.27,0000.21,0000.16,0000.18,-000.12,0000.66,0000.06,0000.11,17.9,24.8,00.0,00.0,0647.5,31.0
2021-04-16T03:15:00Z,00000200,01000000,0000.16,0000.52,0000.22,0000.30,0000.17,-000.24,0000.12,0000.28,-000.07,17.9,24.8,,00.0,0647.5,31.0
2021-04-16T03:16:00Z,00000200,01000000,0000.87,0000.42,0000.09,0000.11,0000.14,-000.06,-000.15,0000.07,0000.07,17.9,24.8,00.0,00.0,0647.5,31.0
2021-04-16T03:17:00Z,00000200,01000000,0000.95,0000.28,0000.35,0000.42,-000.12,0000.04,0000.13,0000.25,0000.26,17.8,24.8,00.0,00.0,0647.4,31.0
2021-04-16T03:18:00Z,00000200,01000000,0000.81,0000.35,0000.30,0000.13,0000.28,-000.02,-000.02,-000.16,-000.05,17.8,24.8,,00.0,0647.4,31.0
2021-04-16T03:19:00Z,00000200,01000000,0000.89,0000.29,0000.53,0000.18,0000.10,0000.23,0000.22,0000.31,0000.13,17.8,24.7,,00.0,0647.5,31.0
2021-04-16T03:20:00Z,00000200,01000000,0000.29,0000.22,0000.43,0000.40,0000.18,0000.22,0000.22,-000.04,0000.17,17.8,24.7,,00.0,0647.4,31.0
2021-04-16T03:21:00Z,00000200,01000000,0000.40,0000.50,0000.34,0000.16,0000.18,0000.17,-000.35,0000.17,0000.02,17.8,24.7,,00.0,0647.4,31.0
2021-04-16T03:22:00Z,00000200,01000000,0000.66,0000.53,0000.29,0000.33,0000.12,0000.18,0000.41,-000.05,0000.03,17.9,24.7,,00.0,0647.4,31.0
2021-04-16T03:23:00Z,00000200,01000000,0000.82,0000.20,0000.40,0000.12,0000.09,0000.21,0000.27,0000.50,0000.23,17.9,24.7,,00.0,0647.4,31.1
2021-04-16T03:24:00Z,00000200,01000000,0000.59,0000.25,0000.26,-000.07,0000.05,-000.07,0000.06,-000.11,0000.46,18.0,24.8,,00.0,0647.3,31.1
2021-04-16T03:25:00Z,00000200,01000000,0000.44,0000.09,0000.23,0000.13,0000.24,-000.24,-000.11,0000.08,-000.20,18.0,24.8,,00.0,0647.4,31.1
2021-04-16T03:26:00Z,00000200,01000000,0000.78,0000.28,0000.31,-000.16,0000.19,0000.44,0000.44,0000.03,-000.04,18.1,24.8,,00.0,0647.3,31.1
2021-04-16T03:27:00Z,00000200,01000000,0001.10,0000.44,0000.36,-000.22,0000.23,-000.02,-000.41,-000.10,-000.09,18.1,24.8,,00.0,0647.3,31.1
2021-04-16T03:28:00Z,00000200,01000000,0000.16,0000.22,0000.21,0000.44,-000.14,-000.00,0000.30,0000.24,0000.14,18.0,24.8,,00.0,0647.3,31.0
2021-04-16T03:29:00Z,00000200,01000000,0000.98,0000.44,0000.18,-000.03,0000.15,-000.28,0000.73,0000.16,0000.23,18.0,24.8,,00.0,0647.3,31.1
2021-04-16T03:30:00Z,00000200,01000000,0000.56,0000.22,-000.19,0000.10,-000.04,-000.07,-000.10,0000.02,0000.34,17.9,24.8,00.0,00.0,0647.2,31.0
2021-04-16T03:31:00Z,00000200,01000000,0001.10,0000.41,0000.39,0000.19,-000.14,0000.04,0000.16,0000.52,0000.06,17.9,24.8,,00.0,0647.2,31.0
2021-04-16T03:32:00Z,00000200,01000000,0000.95,0000.70,0000.34,0000.26,-000.14,-000.05,-000.08,-000.43,-000.00,17.9,24.8,00.0,00.0,0647.1,31.0
2021-04-16T03:33:00Z,00000200,01000000,0000.72,0000.67,0000.54,0000.05,0000.07,0000.16,0000.03,0000.66,0000.04,17.9,24.7,,00.0,0647.2,31.0
2021-04-16T03:34:00Z,00000200,01000000,0000.44,0000.41,0000.16,0000.18,0000.19,-000.10,0000.20,-000.53,-000.06,17.8,24.7,,00.0,0647.2,31.0
2021-04-16T03:35:00Z,00000200,01000000,0000.92,0000.30,0000.49,-000.13,-000.21,0000.11,0000.35,0000.75,0000.51,17.8,24.7,,00.0,0647.1,31.0
2021-04-16T03:36:00Z,00000200,01000000,0000.99,0000.30,0000.11,-000.24,0000.02,0000.01,-000.10,-000.43,-000.26,17.8,24.7,00.0,00.0,0647.2,31.0
2021-04-16T03:37:00Z,00000200,01000000,0000.33,0000.30,0000.26,0000.12,0000.14,-000.01,-000.06,0000.10,0000.15,17.9,24.7,00.0,00.0,0647.1,31.0
2021-04-16T03:38:00Z,00000200,01000000,0000.61,0000.07,0000.13,0000.33,0000.09,-000.27,0000.35,0000.91,0000.55,17.9,24.7,,00.0,0647.1,31.1
2021-04-16T03:39:00Z,00000200,01000000,-000.08,0000.27,0000.05,-000.06,-000.00,-000.15,0000.08,-000.09,-000.36,18.0,24.8,,00.0,0647.0,31.1
2021-04-16T03:40:00Z,00000200,01000000,0000.72,0000.12,0000.01,-000.37,0000.22,0000.07,0000.35,-000.39,0000.13,18.1,24.8,,00.0,0646.9,31.1
2021-04-16T03:41:00Z,00000200,01000000,0000.87,0000.16,0000.20,-000.11,0000.16,-000.08,-000.33,0000.12,0000.25,18.1,24.8,,00.0,0646.8,31.1
2021-04-16T03:42:00Z,00000200,01000000,0000.95,0000.37,0000.31,-000.45,0000.21,-000.12,0000.55,0000.11,0000.07,18.1,24.8,,00.0,0646.9,31.0
2021-04-16T03:43:00Z,00000200,01000000,0000.68,0000.31,0000.66,-000.14,-000.13,-000.29,-000.32,0000.18,-000.17,18.1,24.8,,00.0,0647.1,31.0
2021-04-16T03:44:00Z,00000200,01000000,0000.11,0000.31,0000.38,-000.10,0000.17,0000.04,-000.03,-000.20,0000.17,18.0,24.8,,00.0,0647.1,31.0
2021-04-16T03:45:00Z,00000200,01000000,0000.95,0000.23,0000.08,0000.29,0000.33,-000.04,-000.10,0000.15,-000.08,18.0,24.8,,00.0,0647.0,31.0
2021-04-16T03:46:00Z,00000200,01000000,0000.75,0000.43,0000.56,0000.32,-000.14,0000.04,0000.03,0000.13,0000.24,17.9,24.8,,00.0,0647.0,31.0
2021-04-16T03:47:00Z,00000200,01000000,0000.76,0000.42,0000.36,-000.09,0000.01,0000.16,0000.01,-000.29,-000.19,17.9,24.8,,00.0,0646.9,31.0
2021-04-16T03:48:00Z,00000200,01000000,0000.62,0000.13,0000.41,0000.34,0000.09,-000.09,0000.34,0000.11,0000.13,17.9,24.7,,00.0,0646.9,31.0
2021-04-16T03:49:00Z,00000200,01000000,0000.61,0000.15,0000.56,0000.15,0000.08,0000.21,-000.02,0000.08,-000.14,17.8,24.7,,00.0,0646.8,31.0
2021-04-16T03:50:00Z,00000200,01000000,0000.50,0000.29,0000.31,0000.25,0000.17,-000.15,0000.51,0000.36,0000.47,17.8,24.6,,00.0,0646.9,31.0
2021-04-16T03:51:00Z,00000200,01000000,0000.18,-000.07,0000.50,0000.55,0000.37,0000.22,-000.39,-000.18,-000.05,17.8,24.6,,00.0,0646.9,31.0
2021-04-16T03:52:00Z,00000200,01000000,0000.20,0000.24,0000.47,0000.15,0000.05,0000.03,0000.19,0000.20,0000.05,17.9,24.7,,00.0,0646.9,31.0
2021-04-16T03:53:00Z,00000200,01000000,0000.46,0000.28,0000.06,0000.60,-000.11,0000.12,0000.01,0000.15,0000.02,17.9,24.7,,00.0,0646.9,31.0
2021-04-16T03:54:00Z,00000200,01000000,0000.61,0000.02,0000.33,0000.68,-000.09,-000.21,0000.32,0000.20,-000.01,18.0,24.7,,00.0,0647.0,31.1
2021-04-16T03:55:00Z,00000200,01000000,-000.08,0000.07,0000.09,-000.34,0000.08,0000.19,-000.08,0000.05,0000.19,18.1,24.8,,00.0,0647.0,31.1
2021-04-16T03:56:00Z,00000200,01000000,0001.00,0000.36,0000.22,0000.10,0000.09,-000.32,-000.37,-000.40,0000.08,18.2,24.8,,00.0,0646.9,31.1
2021-04-16T03:57:00Z,00000200,41000000,,,,,,,0001.11,0000.68,0000.76,18.2,24.9,,00.0,0646.9,31.1
2021-04-16T03:58:00Z,00000200,61000000,,,,,,,-000.75,-000.15,-000.63,18.1,25.0,,00.0,0645.9,31.1
2021-04-16T03:59:00Z,00000200,21000000,,,,,,,-000.30,-000.64,-000.17,18.1,25.1,,00.0,0645.9,31.1
